Temperature
22 22 22 22 22 22 21 21 20 21 21 20 20 20 20 19 19 19 18 18 17 17 17 17 16 16 16 15 15 15 14 14 14 14 14 14 13 13 13 13 13 13 12 12
21 22 21 21 21 21 21 21 20 20 20 21 20 20 19 19 18 18 18 17 17 16 16 16 16 16 15 15 15 15 14 14 14 14 13 13 13 13 13 13 12 12 12 12
20 21 21 19 20 20 20 20 20 19 19 20 19 19 18 18 18 17 17 17 16 16 16 16 15 15 15 15 15 14 14 14 14 13 13 13 13 12 12 12 12 12 12 11
19 20 18 19 21 21 20 20 20 19 19 19 19 18 18 17 17 17 16 16 15 15 15 15 15 15 15 14 14 14 14 13 13 13 13 13 12 12 12 12 12 11 11 11
18 18 19 19 19 20 19 18 19 19 19 18 18 17 17 17 16 16 15 15 15 15 15 15 15 15 14 14 14 13 13 13 13 13 12 12 12 12 11 11 11 11 11 11
18 17 18 18 19 19 19 17 18 18 18 18 17 16 16 16 15 15 15 14 14 15 15 14 14 14 14 14 13 13 13 13 12 12 12 12 12 11 11 11 11 10 10 10
17 17 18 18 18 18 17 16 17 17 17 17 16 16 15 15 15 14 14 14 14 14 14 14 14 14 13 13 13 13 12 12 12 12 11 11 11 11 11 10 10 10 10 10
17 17 17 17 17 17 16 17 17 16 16 16 15 15 14 14 14 14 14 13 13 13 13 13 13 13 13 13 13 12 12 12 11 11 11 11 11 10 10 10 10 10 10 9
17 17 17 17 17 16 16 16 16 15 15 15 14 14 14 13 13 13 13 13 13 13 13 12 12 12 12 12 12 12 12 11 11 11 11 10 10 10 10 10 9 9 9 9
17 17 17 16 16 15 15 15 15 15 14 14 14 13 13 13 13 13 12 12 12 12 12 12 12 12 12 11 11 11 11 11 11 10 10 10 10 9 9 9 9 9 9 9
16 16 16 15 15 15 14 14 14 14 14 13 13 13 13 12 12 12 12 12 12 11 11 11 11 11 11 11 11 11 10 10 10 10 10 9 9 9 9 9 9 9 8 8
15 15 15 15 14 14 13 13 13 13 13 13 13 12 12 12 11 11 11 11 11 11 11 11 11 11 11 10 10 10 10 10 9 9 9 9 9 8 8 8 8 8 8 8
14 14 14 13 13 13 12 13 13 12 12 12 12 12 11 11 11 11 11 11 11 11 10 10 10 10 10 10 10 9 9 9 9 9 9 8 8 8 8 8 8 8 7 7
12 12 12 12 12 12 12 12 12 12 12 11 11 11 11 10 10 10 10 10 10 10 10 10 10 10 9 9 9 9 9 9 8 8 8 8 8 8 7 7 7 7 7 7
11 11 11 11 11 11 10 11 11 11 11 10 10 10 10 10 10 10 10 10 10 10 9 9 9 9 9 9 9 8 8 8 8 8 7 7 7 7 7 7 7 7 7 6
10 10 10 10 10 10 10 10 10 10 10 10 9 9 9 9 9 9 9 9 9 9 9 9 9 9 9 8 8 8 8 8 7 7 7 7 7 7 7 6 6 6 6 6
10 10 9 9 9 9 9 9 9 9 9 9 9 9 9 8 8 9 9 9 9 8 8 8 8 8 8 8 8 7 7 7 7 7 6 6 6 6 6 6 6 6 6 6
9 9 9 9 8 8 8 8 8 8 8 8 8 8 8 8 8 8 8 8 8 8 8 8 8 8 8 7 7 7 7 6 6 6 6 6 6 6 6 5 5 5 5 5
8 8 8 8 8 7 7 7 7 7 7 7 7 7 7 7 7 7 7 7 7 7 7 7 7 7 7 7 6 6 6 6 5 5 5 5 5 5 5 5 5 5 5 5
8 7 7 7 7 7 7 7 7 7 7 7 6 7 7 7 7 6 6 6 6 6 6 6 6 6 6 6 6 6 5 5 5 5 5 4 4 4 4 4 4 4 4 4
7 7 7 7 7 6 6 6 6 6 6 6 6 6 6 6 6 6 6 6 6 6 6 6 6 6 5 5 5 5 5 5 4 4 4 4 4 4 4 4 4 4 4 4
7 7 6 6 6 6 6 6 6 6 6 5 5 5 5 5 5 5 5 5 5 5 5 5 5 5 5 5 5 4 4 4 4 4 4 4 4 4 4 4 3 3 3 3
6 6 6 6 6 5 5 5 5 5 5 5 5 5 5 5 5 4 4 5 5 5 5 5 5 5 4 4 4 4 4 4 4 4 4 4 3 3 3 3 3 3 3 3
6 5 5 5 5 5 5 5 5 5 5 5 4 4 4 4 4 4 4 4 4 4 4 4 4 4 4 4 4 4 3 3 3 3 3 3 3 3 3 3 3 2 2 2
5 5 5 5 5 4 4 4 4 4 4 4 4 4 4 4 4 4 4 4 4 4 4 4 4 4 3 3 3 3 3 3 3 3 3 3 3 2 2 2 2 2 2 2
5 4 4 4 4 4 4 4 4 4 4 3 3 3 3 3 3 3 3 3 3 3 3 3 3 3 3 3 3 2 2 2 2 2 2 2 2 2 2 2 2 2 2 2
4 4 4 3 3 3 3 3 3 3 3 3 3 3 3 3 3 3 3 3 3 3 3 3 3 2 2 2 2 2 2 2 2 2 2 2 2 2 2 2 1 1 1 1
Wind_Speed
9 8 8 9 9 8 9 9 8 6 4 2 1 2 2 1 1 2 1 2 2 1 2 3 4 4 5 5 5 6 6 5 4 3 3 3 3 2 2 1 1 1 1 1
10 8 8 9 8 8 9 9 8 7 6 2 2 3 3 2 2 1 1 2 2 1 2 2 3 4 5 5 5 5 5 4 4 3 3 3 3 3 2 2 2 2 1 1
9 8 8 8 7 7 7 6 6 6 4 2 2 2 2 2 2 2 2 3 2 2 1 1 2 3 4 4 5 4 5 5 4 3 3 3 3 2 3 2 2 1 1 1
7 7 8 2 2 1 2 3 2 2 2 2 2 2 2 2 2 2 2 2 1 1 0 1 0 1 3 4 4 5 4 4 3 3 3 3 3 3 3 2 2 2 2 2
5 7 6 2 1 1 2 3 1 1 1 1 2 2 1 3 4 3 3 2 2 1 1 0 0 0 2 3 3 4 4 4 4 4 3 3 4 3 2 1 2 2 2 3
5 6 4 2 4 3 2 2 3 3 1 0 1 2 1 3 3 3 3 2 2 2 2 1 0 1 2 3 3 4 4 4 4 4 4 4 4 3 2 2 2 2 2 2
7 7 3 3 3 2 1 2 4 3 3 1 1 2 2 3 4 3 3 3 3 2 2 1 1 0 1 2 2 3 3 4 3 4 4 4 3 3 2 2 2 3 3 2
6 6 3 4 2 1 3 4 4 4 3 3 3 3 3 3 3 3 3 3 2 2 1 2 1 1 1 1 1 2 2 3 3 4 4 3 4 3 3 3 3 3 3 2
2 1 3 3 3 5 5 4 5 4 4 3 2 2 3 3 3 3 2 2 2 2 1 2 1 1 1 1 1 1 2 2 3 3 4 4 4 3 3 3 3 3 2 2
3 1 2 2 3 4 5 5 5 4 3 2 2 2 3 3 3 2 2 2 2 2 1 2 2 1 1 1 0 1 2 2 3 3 3 3 3 3 3 3 3 3 3 2
5 3 2 2 3 4 4 5 5 4 3 2 2 2 3 3 3 3 2 2 2 2 2 3 2 2 1 1 1 2 2 2 2 2 3 2 2 2 3 3 4 4 3 3
4 4 3 3 4 5 5 4 4 4 4 3 3 3 3 3 3 3 3 3 3 2 2 2 2 2 1 1 1 2 2 2 2 2 2 2 2 1 1 3 4 5 5 5
5 6 5 4 4 5 5 5 5 4 4 4 3 3 3 3 3 3 4 4 3 3 3 2 2 2 1 1 2 2 2 2 1 2 2 2 3 3 2 1 2 4 5 6
4 4 4 5 5 5 5 6 5 4 4 4 4 4 3 4 4 4 4 4 3 3 3 2 2 2 1 2 2 2 1 2 1 2 2 2 3 3 3 3 3 2 4 6
4 4 4 4 4 5 5 6 6 5 5 5 4 4 4 4 4 5 4 4 4 3 3 2 2 2 1 1 1 2 1 1 1 2 2 2 3 3 3 4 3 3 2 3
3 3 4 4 4 4 5 5 6 6 6 5 5 5 5 5 5 5 4 4 4 3 3 2 3 2 1 1 1 1 1 3 2 2 2 3 3 3 3 3 3 4 4 3
2 3 4 4 4 5 5 5 6 6 6 6 6 6 5 5 5 5 4 4 3 3 3 3 3 1 0 1 2 2 2 3 4 4 3 3 3 3 3 3 3 4 4 4
3 4 4 5 5 5 6 6 6 6 6 6 6 5 5 5 6 6 5 4 4 3 3 3 1 0 1 1 2 2 2 2 3 3 3 2 2 2 2 2 3 3 3 3
3 4 4 5 5 6 6 6 6 6 6 5 5 5 5 5 5 6 5 4 4 4 3 2 1 1 1 1 2 2 2 2 2 3 2 3 3 3 3 3 3 2 2 2
3 3 4 5 5 5 6 6 6 6 6 5 5 6 5 5 5 5 5 4 4 3 3 2 1 1 1 1 2 2 2 3 3 3 2 3 3 3 3 3 2 2 3 3
3 4 5 5 5 6 6 6 6 6 6 5 5 6 6 5 5 5 4 4 4 4 3 2 2 2 1 1 2 2 2 2 2 2 3 3 3 3 3 3 3 3 3 3
4 4 5 5 6 6 6 5 5 6 5 6 6 6 6 5 5 4 4 4 4 4 3 2 2 2 2 2 2 2 3 3 2 2 2 2 2 2 3 3 3 3 3 2
4 4 5 6 6 7 7 6 5 5 5 5 5 5 6 5 4 4 4 3 3 4 4 3 3 3 4 3 2 3 3 2 2 2 2 2 2 2 2 2 2 2 2 2
5 5 6 6 6 7 7 6 6 5 5 5 5 5 5 4 4 3 3 4 5 4 3 3 4 4 4 2 2 2 2 2 2 2 2 1 1 1 1 1 1 1 1 2
5 5 6 6 5 5 6 6 6 5 4 4 5 5 4 3 4 4 3 4 5 5 3 3 4 5 3 2 2 2 2 2 2 2 1 1 1 1 1 1 1 1 2 2
4 4 4 5 5 4 5 5 5 4 4 4 4 4 4 4 4 4 3 4 4 4 3 2 2 2 1 1 2 2 2 2 3 2 2 2 2 2 2 2 2 2 2 2
4 4 4 4 4 3 4 4 4 5 5 4 4 4 4 4 4 4 4 3 3 3 2 2 1 1 1 2 2 2 2 2 2 2 2 2 1 2 2 2 2 2 2 3
Wind_Direction
287 289 283 273 268 257 252 259 265 285 296 311 59 89 95 105 74 65 66 93 102 132 153 161 166 172 171 172 166 165 167 173 181 182 179 172 163 164 180 201 221 210 216 201
280 273 274 274 272 267 263 265 272 282 289 343 46 70 57 46 52 53 41 61 62 117 151 168 179 177 172 167 166 165 168 167 162 173 174 167 169 166 173 197 218 202 198 179
273 275 277 266 261 253 256 264 259 270 281 13 47 53 28 7 26 51 24 53 30 6 71 184 187 180 169 166 160 164 169 164 167 168 167 165 170 172 184 194 202 181 190 177
275 273 259 257 23 352 281 300 313 334 26 49 50 43 37 20 22 40 33 15 12 339 313 280 193 154 164 155 158 164 161 160 166 168 173 168 165 180 191 190 181 190 204 196
264 268 261 222 4 328 263 279 320 314 3 31 58 41 27 31 26 27 38 10 342 327 285 187 94 134 152 154 163 166 163 167 172 173 172 171 175 185 182 180 192 206 201 195
262 267 267 57 50 10 292 255 6 356 353 130 27 295 328 22 22 22 43 24 352 355 2 53 107 174 161 166 173 178 174 177 179 176 180 190 190 188 185 197 208 210 225 209
252 259 257 61 53 39 278 352 13 10 16 11 313 11 37 26 26 28 32 21 13 10 10 16 19 44 182 177 187 184 176 176 181 189 194 193 186 184 193 204 206 215 224 225
241 249 247 65 83 14 9 30 23 11 15 28 31 46 36 24 20 16 14 15 8 8 13 351 359 219 204 203 196 161 164 184 193 193 200 193 175 188 198 200 211 222 221 222
267 270 50 73 45 29 26 9 10 5 14 33 13 17 10 358 355 358 359 4 0 356 337 328 333 289 239 249 165 153 175 200 202 194 191 187 184 192 203 201 207 218 214 219
284 282 31 35 37 21 7 357 354 355 0 2 342 341 346 340 335 336 342 345 332 318 291 291 298 286 235 269 192 179 202 210 206 197 198 190 184 191 198 202 207 211 213 225
280 309 344 1 353 344 349 350 345 344 339 328 326 321 320 320 323 324 327 327 311 301 294 289 290 282 273 227 203 216 219 211 215 200 186 187 186 203 205 206 197 202 212 216
283 313 310 313 336 347 345 334 329 328 330 334 328 311 316 318 315 309 304 300 292 288 290 282 278 272 252 224 206 219 226 217 210 193 188 184 179 227 230 213 212 213 219 222
319 341 346 346 347 340 327 320 322 330 329 326 327 328 323 313 305 304 301 294 290 280 277 281 282 264 248 234 227 225 226 220 200 195 197 198 200 202 221 263 232 224 224 227
352 340 333 339 331 329 329 330 330 332 333 329 327 329 327 311 306 303 300 299 293 285 277 268 261 265 257 238 230 223 222 229 223 209 208 213 218 216 207 207 221 246 232 219
338 337 331 340 344 343 343 339 332 329 327 323 323 325 325 314 305 304 303 300 294 284 275 270 269 259 251 242 243 231 217 218 219 215 219 226 229 229 224 221 218 219 220 214
327 340 350 343 339 338 337 329 322 320 323 324 324 324 322 318 310 303 303 301 290 284 282 271 267 259 228 229 261 252 225 227 234 224 221 222 223 228 229 227 225 221 220 208
325 326 325 322 324 325 325 323 321 320 320 318 317 319 319 317 312 302 302 302 294 289 284 271 266 259 220 235 251 246 237 219 230 236 230 227 224 225 229 232 235 235 230 213
337 336 330 323 323 323 323 321 320 319 318 315 314 315 316 313 307 305 304 306 304 302 294 286 288 294 258 253 249 239 241 233 228 237 237 229 234 236 241 240 242 252 248 223
351 345 337 330 327 323 320 319 318 314 312 312 310 306 306 305 305 307 309 306 297 291 295 316 305 272 255 248 270 243 242 246 247 253 246 230 233 237 235 230 233 242 249 246
349 343 336 327 324 319 316 316 315 313 314 314 310 309 310 313 316 313 310 303 295 297 309 322 278 257 250 242 259 250 248 250 247 242 239 229 228 233 234 227 222 232 240 240
333 331 327 323 321 319 315 313 312 310 313 314 308 305 306 311 315 315 310 303 306 316 312 299 274 266 252 268 260 250 247 251 248 237 237 233 229 223 226 225 225 231 236 235
328 325 325 323 321 319 317 316 315 313 314 312 308 306 304 306 307 306 301 299 308 321 314 287 272 264 261 263 249 248 246 247 243 240 246 240 228 222 221 218 220 229 231 223
324 323 321 320 319 317 317 317 316 313 308 303 304 305 302 302 304 300 299 307 314 312 305 288 289 277 265 251 244 241 240 238 236 232 238 240 242 234 221 220 218 214 214 214
317 318 316 317 317 315 314 316 315 312 310 306 304 303 302 302 300 300 303 311 315 306 294 285 279 267 261 252 252 244 240 241 239 238 244 246 247 236 220 222 222 211 214 226
310 310 313 315 312 310 310 314 316 313 309 310 312 314 311 308 305 308 312 314 313 306 301 285 275 271 260 253 250 238 239 246 247 240 233 238 233 224 224 227 219 215 225 232
307 307 307 305 305 307 311 311 311 312 311 307 311 319 320 316 313 315 312 310 312 315 318 301 292 284 273 265 270 262 251 255 255 244 240 242 232 221 221 224 222 225 233 235
305 304 302 303 304 307 306 306 308 311 313 309 311 314 315 318 322 323 323 322 320 319 317 311 308 302 290 276 275 275 270 259 245 241 242 242 235 227 222 228 231 231 235 241
Height
1469 1467 1467 1469 1470 1470 1474 1475 1479 1476 1475 1475 1473 1475 1477 1479 1480 1480 1481 1482 1483 1484 1485 1487 1489 1491 1492 1495 1496 1498 1500 1501 1503 1504 1505 1506 1507 1508 1509 1510 1510 1511 1512 1512
1471 1467 1467 1470 1470 1470 1471 1472 1473 1473 1475 1471 1472 1475 1477 1478 1479 1480 1481 1481 1482 1483 1484 1486 1487 1488 1490 1492 1494 1495 1497 1498 1500 1501 1502 1503 1504 1505 1506 1507 1508 1508 1508 1509
1475 1468 1468 1475 1469 1469 1470 1469 1471 1475 1474 1472 1473 1475 1477 1478 1479 1480 1481 1481 1482 1482 1483 1484 1485 1486 1487 1489 1490 1492 1494 1495 1496 1498 1499 1500 1501 1502 1503 1504 1505 1505 1506 1506
1475 1475 1484 1473 1464 1465 1468 1469 1469 1471 1472 1473 1475 1476 1477 1478 1479 1479 1479 1480 1481 1481 1482 1482 1483 1484 1485 1486 1488 1489 1491 1492 1493 1495 1496 1497 1498 1499 1500 1500 1501 1502 1503 1503
1478 1480 1474 1470 1467 1467 1469 1472 1470 1471 1472 1473 1475 1475 1477 1477 1478 1478 1479 1479 1479 1480 1480 1481 1481 1482 1483 1484 1486 1487 1488 1489 1490 1491 1492 1493 1494 1495 1496 1497 1498 1499 1500 1500
1477 1482 1480 1474 1468 1466 1469 1474 1471 1471 1472 1473 1474 1477 1478 1477 1477 1477 1477 1478 1478 1478 1478 1478 1479 1480 1481 1482 1483 1484 1485 1486 1487 1488 1489 1490 1491 1492 1493 1494 1495 1496 1496 1497
1479 1480 1473 1471 1469 1469 1478 1479 1473 1472 1473 1474 1475 1477 1477 1476 1476 1476 1476 1476 1476 1476 1477 1477 1477 1478 1479 1479 1480 1481 1482 1483 1484 1485 1486 1487 1488 1489 1490 1491 1492 1492 1493 1493
1476 1480 1479 1472 1471 1474 1476 1474 1474 1474 1474 1474 1475 1475 1475 1476 1476 1476 1475 1475 1475 1475 1475 1475 1475 1475 1475 1477 1478 1479 1479 1480 1481 1482 1483 1484 1485 1485 1486 1487 1488 1489 1489 1489
1473 1477 1473 1472 1473 1474 1474 1474 1474 1475 1474 1474 1475 1475 1475 1475 1475 1474 1474 1474 1473 1473 1473 1474 1474 1474 1474 1475 1475 1476 1476 1477 1478 1478 1479 1480 1481 1482 1482 1483 1484 1484 1485 1485
1470 1470 1471 1473 1473 1474 1475 1475 1475 1475 1474 1474 1474 1474 1474 1474 1473 1473 1472 1472 1472 1471 1471 1472 1472 1472 1472 1472 1472 1473 1473 1474 1475 1475 1476 1477 1478 1478 1479 1479 1480 1481 1481 1482
1470 1471 1472 1473 1474 1474 1474 1474 1474 1474 1474 1474 1473 1473 1473 1472 1471 1471 1470 1470 1470 1469 1469 1469 1469 1469 1469 1469 1469 1470 1470 1471 1471 1472 1473 1473 1474 1475 1475 1476 1476 1477 1477 1478
1473 1473 1473 1473 1474 1474 1473 1473 1473 1473 1472 1472 1472 1472 1471 1471 1470 1469 1469 1468 1468 1467 1467 1466 1466 1466 1466 1466 1466 1466 1467 1467 1468 1468 1469 1470 1470 1471 1472 1473 1473 1474 1474 1475
1473 1472 1473 1472 1473 1473 1473 1472 1472 1472 1471 1471 1471 1470 1469 1469 1468 1467 1467 1466 1465 1464 1464 1464 1463 1463 1463 1464 1464 1463 1463 1464 1464 1464 1465 1466 1466 1467 1467 1468 1469 1470 1470 1470
1472 1472 1472 1472 1472 1472 1471 1471 1471 1470 1470 1470 1469 1468 1467 1466 1465 1465 1464 1463 1462 1462 1461 1461 1460 1460 1461 1461 1461 1461 1461 1461 1461 1461 1461 1462 1462 1463 1463 1463 1464 1464 1466 1466
1472 1472 1472 1471 1471 1470 1470 1469 1469 1468 1468 1468 1467 1466 1465 1464 1462 1462 1461 1460 1459 1458 1458 1458 1457 1457 1457 1457 1457 1457 1457 1457 1458 1458 1458 1458 1458 1459 1459 1460 1460 1460 1461 1462
1471 1471 1470 1470 1469 1469 1468 1468 1468 1467 1466 1465 1464 1463 1462 1461 1459 1458 1458 1457 1456 1455 1455 1454 1454 1454 1454 1453 1453 1453 1453 1454 1454 1454 1454 1454 1454 1454 1455 1455 1456 1456 1456 1457
1469 1469 1469 1469 1468 1468 1467 1467 1466 1465 1464 1463 1462 1461 1459 1458 1456 1455 1454 1454 1453 1452 1451 1451 1450 1450 1450 1450 1450 1449 1450 1450 1450 1450 1449 1449 1450 1450 1450 1451 1451 1451 1452 1452
1468 1468 1468 1468 1467 1466 1465 1465 1464 1463 1461 1460 1459 1458 1456 1455 1453 1452 1451 1450 1449 1449 1448 1448 1447 1447 1446 1446 1446 1446 1446 1446 1446 1445 1445 1446 1446 1446 1446 1446 1447 1447 1447 1448
1467 1467 1467 1466 1465 1465 1463 1462 1461 1460 1459 1458 1456 1455 1453 1452 1451 1449 1448 1447 1446 1445 1444 1444 1444 1443 1443 1442 1442 1442 1442 1441 1441 1441 1441 1441 1442 1442 1442 1442 1442 1443 1443 1443
1466 1465 1465 1464 1463 1462 1461 1460 1459 1457 1456 1455 1453 1452 1450 1449 1448 1446 1445 1444 1443 1442 1441 1441 1440 1439 1439 1439 1438 1438 1437 1437 1437 1437 1437 1437 1437 1437 1438 1438 1438 1438 1439 1439
1464 1463 1463 1462 1461 1460 1458 1457 1456 1454 1453 1452 1450 1449 1447 1446 1445 1443 1442 1441 1440 1439 1438 1437 1436 1436 1435 1435 1435 1434 1434 1434 1433 1433 1433 1433 1433 1433 1433 1433 1434 1434 1434 1435
1462 1461 1460 1459 1458 1457 1456 1455 1453 1452 1450 1448 1447 1446 1444 1443 1441 1440 1439 1438 1437 1436 1435 1434 1433 1432 1432 1432 1431 1431 1430 1430 1429 1429 1429 1429 1429 1428 1429 1429 1429 1430 1430 1431
1460 1459 1458 1457 1456 1454 1453 1451 1450 1448 1447 1445 1444 1442 1441 1440 1439 1437 1436 1435 1434 1433 1431 1430 1429 1429 1428 1428 1427 1427 1426 1426 1426 1425 1425 1424 1424 1424 1424 1424 1425 1425 1426 1426
1458 1457 1456 1455 1453 1451 1450 1448 1447 1445 1443 1442 1441 1439 1438 1436 1435 1434 1433 1431 1430 1429 1427 1426 1426 1425 1424 1424 1423 1423 1423 1422 1422 1421 1421 1421 1420 1420 1420 1420 1421 1421 1421 1422
1455 1454 1453 1451 1450 1448 1447 1445 1443 1442 1440 1439 1437 1436 1434 1433 1432 1430 1429 1428 1426 1425 1423 1422 1422 1421 1420 1420 1419 1419 1419 1418 1418 1418 1417 1417 1417 1417 1417 1417 1417 1417 1417 1417
1452 1451 1450 1449 1447 1446 1444 1442 1440 1439 1437 1435 1434 1432 1431 1430 1428 1427 1425 1424 1423 1421 1420 1419 1418 1417 1417 1416 1416 1415 1415 1415 1414 1414 1413 1413 1413 1413 1413 1413 1413 1413 1413 1413
1449 1448 1446 1445 1444 1442 1441 1439 1438 1436 1434 1432 1430 1429 1427 1426 1425 1423 1422 1421 1419 1418 1417 1416 1415 1414 1413 1413 1412 1412 1411 1411 1410 1410 1409 1409 1409 1409 1409 1409 1409 1409 1409 1409